"Pseudo-MPEC" for P10Ijuh

Created 2018 Jul 17 22:18:06 UT using Find_Orb

Click here for an explanation of pseudo-MPECs

 
 Astrometry: 
     P10Ijuh  C2018 07 107hAstrometryppGR=DOhS.j($G(88q3vd4oiX_2oM\?'][ZTcC3KF51
     P10Ijuh  C2018 07 103oO[wAMH.I3B?VUXBJ,YDg%!q_:Lj'usr;iu#m.Ff!D`%PsIr6)MF51
     P10Ijuh  C2018 07 10aBlUI6\D/S=$Bl(5(!r)F2bP,fBoP]kv8:2N_u'VT$H6mIN!o`=yF51
     P10Ijuh KC2018 07 13l)VhR,KD(=^nlwiM-redacted;CQ/3EeQH9,qJpl-[`2`*n$BJt,807
     P10Ijuh KC2018 07 13w'))7=(VHPp/Gp3q@xwd8d3-Of'5=bsSj(0lX!YPhQl/)jim(TZx807
     P10Ijuh KC2018 07 13;0By5^r68bUQ(0dXy;JbxnQFP+(jFBj6see[bLM%jO4u1D`iCUm_807
     P10Ijuh KC2018 07 17T7Fv)wq)s;?T#k'\60p1A;qd8'Xx[Ni[Ne;Wbfa6'D_rLAb\8sX-474
     P10Ijuh KC2018 07 17EByLTQ-(@BW`7h$O8+0]D(cfjyX=W?brhTJO7DqH*c6-gfELP\q2474
     P10Ijuh KC2018 07 17E7VEIsVB6V:$ed./YJmB`/\V\-h\xD[Gr7C.n]fYt[eT_XvNEOCP474

Station data:
(474) Mount John Observatory, Lake Tekapo  (S43.987388 E170.464960)  New
   Zealand.  Observers A. C. Gilmore, P. M. Kilmartin. Measurer P. M.
   Kilmartin. 1.0-m f/7.7 reflector + CCD.
(807) Cerro Tololo Observatory, La Serena  (S30.169136 W70.805900)  Chile.
   1.5-m Ritchey-Chrétien.
(F51) Pan-STARRS 1, Haleakala  (N20.707235 W156.255910)  US/Hawaii.
   Observers N. Primak, A. Schultz, S. Watters, J. Thiel, T. Goggia. Measurer
   PS1 Science Consortium. 1.8-m Ritchey-Chrétien + CCD.

Orbital elements:  P10Ijuh
   Perihelion 2018 Aug 5.772420 +/- 0.321 TT = 18:32:17 (JD 2458336.272420)
Epoch 2018 Jul 17.0 TT = JDT 2458316.5   Earth MOID: 0.5184   AutoNEOCP
M 354.16883 +/- 0.12                (J2000 ecliptic)
n   0.29491393 +/- 0.00177          Peri.  236.31604 +/- 0.25
a   2.23531733 +/- 0.00892          Node    81.65631 +/- 0.08
e   0.3302521 +/- 0.00193           Incl.   11.33940 +/- 0.034
P   3.34                   H 21.0   G  0.15   U  8.5  
q 1.49709893 +/- 0.00166    Q 2.97353573 +/- 0.016
From 9 observations 2018 July 10-17; mean residual 0".07
Residuals in arcseconds: 
180710 F51  .05-  .04+    180713 807  .04+  .03-    180717 474  .18+  .07-    
180710 F51  .02-  .04+    180713 807  .07-  .01-    180717 474  .17-  .07+    
180710 F51  .06+  .09-    180713 807  .03+  .04+    180717 474  .01-  .00     

Ephemerides (geocentric):
Date (UTC) HH   RA              Dec         delta   r     elong  mag " sig PA
---- -- -- --  -------------   -----------  ------ ------ -----  --- ---- ---
2018 07 17 22  22 30 13.333   -32 39 05.32  .56649 1.5048 142.3 21.8  .15  50
2018 07 17 23  22 30 15.977   -32 39 49.14  .56636 1.5048 142.3 21.8  .16  50
2018 07 18 00  22 30 18.618   -32 40 32.96  .56623 1.5047 142.3 21.8  .17  50
2018 07 18 01  22 30 21.255   -32 41 16.79  .56611 1.5047 142.3 21.8  .18  50
2018 07 18 02  22 30 23.887   -32 42 00.63  .56598 1.5047 142.3 21.8  .19  50
2018 07 18 03  22 30 26.516   -32 42 44.47  .56585 1.5046 142.4 21.8  .20  50
2018 07 18 04  22 30 29.140   -32 43 28.31  .56572 1.5046 142.4 21.8  .20  50
2018 07 18 05  22 30 31.761   -32 44 12.17  .56560 1.5046 142.4 21.8  .21  50
2018 07 18 06  22 30 34.377   -32 44 56.02  .56547 1.5045 142.4 21.8  .22  50
2018 07 18 07  22 30 36.989   -32 45 39.89  .56534 1.5045 142.5 21.8  .23  50
2018 07 18 08  22 30 39.597   -32 46 23.76  .56522 1.5045 142.5 21.8  .24  50
2018 07 18 09  22 30 42.201   -32 47 07.63  .56509 1.5044 142.5 21.8  .25  50
2018 07 18 10  22 30 44.801   -32 47 51.51  .56496 1.5044 142.5 21.8  .26  50
2018 07 18 11  22 30 47.397   -32 48 35.40  .56484 1.5044 142.5 21.8  .27  50
2018 07 18 12  22 30 49.989   -32 49 19.29  .56471 1.5043 142.6 21.8  .28  50
2018 07 18 13  22 30 52.577   -32 50 03.18  .56459 1.5043 142.6 21.8  .28  50
2018 07 18 14  22 30 55.160   -32 50 47.08  .56446 1.5043 142.6 21.8  .29  50
2018 07 18 15  22 30 57.740   -32 51 30.99  .56434 1.5042 142.6 21.8  .30  50
2018 07 18 16  22 31 00.315   -32 52 14.89  .56421 1.5042 142.6 21.8  .31  50
2018 07 18 17  22 31 02.887   -32 52 58.81  .56409 1.5042 142.7 21.8  .32  50
2018 07 18 18  22 31 05.454   -32 53 42.73  .56396 1.5041 142.7 21.8  .33  50
2018 07 18 19  22 31 08.017   -32 54 26.65  .56384 1.5041 142.7 21.8  .34  50
2018 07 18 20  22 31 10.576   -32 55 10.58  .56371 1.5041 142.7 21.8  .35  50
2018 07 18 21  22 31 13.131   -32 55 54.51  .56359 1.5041 142.7 21.8  .36  50
2018 07 18 22  22 31 15.682   -32 56 38.45  .56347 1.5040 142.8 21.8  .37  50
2018 07 18 23  22 31 18.228   -32 57 22.39  .56334 1.5040 142.8 21.8  .38  50
2018 07 19 00  22 31 20.771   -32 58 06.33  .56322 1.5040 142.8 21.8  .39  50
2018 07 19 01  22 31 23.309   -32 58 50.28  .56310 1.5039 142.8 21.8  .40  50
2018 07 19 02  22 31 25.843   -32 59 34.23  .56298 1.5039 142.8 21.8  .41  50
2018 07 19 03  22 31 28.374   -33 00 18.19  .56285 1.5039 142.9 21.8  .42  50
2018 07 19 04  22 31 30.900   -33 01 02.15  .56273 1.5038 142.9 21.8  .44  50
2018 07 19 05  22 31 33.422   -33 01 46.11  .56261 1.5038 142.9 21.8  .45  50
2018 07 19 06  22 31 35.939   -33 02 30.08  .56249 1.5038 142.9 21.8  .46  50
2018 07 19 07  22 31 38.453   -33 03 14.05  .56237 1.5037 142.9 21.8  .47  50
2018 07 19 08  22 31 40.962   -33 03 58.03  .56225 1.5037 143.0 21.8  .48  50
2018 07 19 09  22 31 43.468   -33 04 42.00  .56213 1.5037 143.0 21.8  .49  50
2018 07 19 10  22 31 45.969   -33 05 25.99  .56201 1.5036 143.0 21.8  .50  50
2018 07 19 11  22 31 48.466   -33 06 09.97  .56188 1.5036 143.0 21.8  .51  50
2018 07 19 12  22 31 50.959   -33 06 53.96  .56176 1.5036 143.1 21.8  .52  50
2018 07 19 13  22 31 53.448   -33 07 37.95  .56164 1.5035 143.1 21.8  .54  50
2018 07 19 14  22 31 55.933   -33 08 21.94  .56152 1.5035 143.1 21.8  .55  50
2018 07 19 15  22 31 58.413   -33 09 05.94  .56141 1.5035 143.1 21.8  .56  50
2018 07 19 16  22 32 00.889   -33 09 49.94  .56129 1.5035 143.1 21.8  .57  50
2018 07 19 17  22 32 03.362   -33 10 33.94  .56117 1.5034 143.2 21.8  .58  50
2018 07 19 18  22 32 05.830   -33 11 17.94  .56105 1.5034 143.2 21.8  .59  50
2018 07 19 19  22 32 08.293   -33 12 01.95  .56093 1.5034 143.2 21.8  .61  50
2018 07 19 20  22 32 10.753   -33 12 45.96  .56081 1.5033 143.2 21.8  .62  50
2018 07 19 21  22 32 13.209   -33 13 29.97  .56069 1.5033 143.2 21.8  .63  50